Flag Weather past 2 weeks in Lakewood, New Jersey, U.S.A.

Now
37 °F

Mostly cloudy.


Feels Like: 31 °F
Forecast: 31 / 40 °F
Wind: 8 mph from Northwest

Location: Belmar-Farmdale

Current Time: Nov 27, 2014 at 2:51:35 PM

Latest Report: Nov 27, 2014 at 2:35 PM


Visibility: 10 mi

Pressure: 29.99 "Hg

Humidity: 70%

Dew point: 28 °F

Location of LakewoodLocation

Historic Weather in Lakewood — Graph

°F

Lakewood temperature yesterday

Maximum temperature yesterday: 48 °F (at 3:15 AM)
Minimum temperature yesterday: 36 °F (at 7:55 PM)
Average temperature yesterday: 40 °F

Past Weeks' High & Low Weather Summary

 TemperatureHumidityPressure
High72 °F (Nov 24, 12:55 PM)88% (Nov 17, 4:55 PM)30.51 "Hg (Nov 17, 4:55 PM)
Low21 °F (Nov 19, 3:35 AM)29% (Nov 18, 12:35 PM)29.51 "Hg (Nov 17, 5:35 PM)
Average40 °F54%30.06 "Hg
* Reported Nov 12 1:15 PM — Nov 27 1:55 PM, Lakewood, Weather by CustomWeather, © 2014

Note: Actual official high and low records may vary slightly from our data, if they occured in-between our weather recording intervals... More about our weather records

Advertising

Lakewood weather history for previous 24 hours

 ConditionsComfort  
Time TempWeatherWind HumidityBarometerVisibility
1:55 PM
Nov 27
37 °FMostly cloudy.12 mph70%29.98 "Hg10 mi
1:35 PM37 °FMostly cloudy.10 mph70%29.98 "Hg10 mi
1:15 PM37 °FMostly cloudy.10 mph70%29.98 "Hg10 mi
12:55 PM37 °FOvercast.9 mph70%29.98 "Hg10 mi
12:35 PM37 °FOvercast.8 mph70%29.99 "Hg10 mi
12:15 PM37 °FOvercast.7 mph70%29.99 "Hg10 mi
11:55 AM37 °FOvercast.7 mph70%29.99 "Hg10 mi
11:35 AM37 °FMostly cloudy.10 mph70%29.99 "Hg10 mi
11:15 AM37 °FMostly cloudy.7 mph70%30.00 "Hg10 mi
10:55 AM37 °FCloudy.7 mph70%30.00 "Hg10 mi
10:35 AM37 °FMore clouds than sun.9 mph70%30.00 "Hg10 mi
10:15 AM37 °FOvercast.7 mph70%30.00 "Hg10 mi
9:55 AM37 °FMostly cloudy.6 mph70%30.00 "Hg10 mi
9:35 AM37 °FMostly cloudy.7 mph70%30.00 "Hg10 mi
9:15 AM37 °FMostly cloudy.7 mph70%30.00 "Hg10 mi
8:55 AM36 °FCloudy.7 mph75%30.00 "Hg10 mi
8:35 AM36 °FMore clouds than sun.7 mph75%30.00 "Hg10 mi
8:15 AM36 °FCloudy.6 mph75%29.99 "Hg10 mi
7:55 AM36 °FMostly cloudy.6 mph75%29.99 "Hg10 mi
7:35 AM36 °FBroken clouds.5 mph75%29.98 "Hg10 mi
7:15 AM36 °FBroken clouds.5 mph70%29.97 "Hg10 mi
6:55 AM36 °FOvercast.8 mph75%29.94 "Hg10 mi
6:35 AM36 °FMostly cloudy.9 mph75%29.95 "Hg10 mi
6:15 AM36 °FOvercast.7 mph75%29.95 "Hg10 mi
5:55 AM36 °FOvercast.7 mph75%29.95 "Hg10 mi
5:35 AM36 °FOvercast.8 mph75%29.95 "Hg10 mi
5:15 AM36 °FOvercast.6 mph75%29.94 "Hg10 mi
4:55 AM36 °FMostly cloudy.6 mph75%29.94 "Hg10 mi
4:35 AM36 °FMostly cloudy.6 mph75%29.94 "Hg10 mi
4:15 AM36 °FOvercast.6 mph75%29.94 "Hg10 mi
3:55 AM36 °FOvercast.7 mph75%29.93 "Hg10 mi
3:15 AM34 °FPassing clouds.8 mph81%29.92 "Hg10 mi
2:55 AM34 °FPassing clouds.9 mph81%29.91 "Hg10 mi
2:35 AM36 °FPassing clouds.7 mph75%29.90 "Hg10 mi
2:15 AM36 °FOvercast.8 mph75%29.90 "Hg10 mi
1:55 AM36 °FPartly cloudy.7 mph75%29.90 "Hg10 mi
1:35 AM36 °FPassing clouds.9 mph75%29.89 "Hg10 mi
1:15 AM36 °FPartly cloudy.7 mph75%29.88 "Hg10 mi
12:55 AM36 °FOvercast.7 mph75%29.87 "Hg10 mi
12:35 AM36 °FPartly cloudy.7 mph75%29.85 "Hg10 mi
12:15 AM36 °FMostly cloudy.9 mph81%29.86 "Hg10 mi
11:55 PM
Nov 26
36 °FOvercast.10 mph81%29.85 "Hg10 mi
11:35 PM36 °FOvercast.12 mph81%29.84 "Hg10 mi
11:15 PM36 °FMostly cloudy.15 mph75%29.83 "Hg10 mi
10:55 PM36 °FOvercast.13 mph75%29.82 "Hg10 mi
10:35 PM36 °FMostly cloudy.14 mph75%29.81 "Hg10 mi
9:55 PM36 °FMostly cloudy.13 mph75%29.80 "Hg10 mi
9:35 PM36 °FLow clouds.16 mph75%29.80 "Hg10 mi
9:15 PM36 °FMostly cloudy.15 mph75%29.79 "Hg10 mi
8:55 PM36 °FMostly cloudy.15 mph75%29.79 "Hg9 mi
8:35 PM36 °FMostly cloudy.15 mph75%29.79 "Hg8 mi
8:15 PM36 °FLow clouds.17 mph75%29.79 "Hg7 mi
7:55 PM36 °FMostly cloudy.16 mph81%29.79 "Hg9 mi
7:35 PM37 °FMostly cloudy.16 mph75%29.78 "Hg4 mi
6:55 PM37 °FMostly cloudy.17 mph75%29.76 "Hg5 mi
6:35 PM37 °FMostly cloudy.16 mph75%29.75 "Hg3 mi
6:15 PM37 °FMostly cloudy.15 mph75%29.75 "Hg3 mi
5:55 PM37 °FMostly cloudy.14 mph75%29.77 "Hg4 mi
5:35 PM37 °FMostly cloudy.18 mph75%29.74 "Hg3 mi
5:15 PM37 °FMostly cloudy.17 mph75%29.74 "Hg3 mi
4:55 PM37 °FLow clouds.17 mph81%29.73 "Hg5 mi
4:35 PM37 °FLow clouds.14 mph81%29.74 "Hg10 mi
4:15 PM37 °FLow clouds.13 mph75%29.74 "Hg10 mi
3:55 PM37 °FLow clouds.16 mph81%29.74 "Hg10 mi
3:35 PM37 °FLow clouds.17 mph75%29.76 "Hg7 mi
3:15 PM37 °FLow clouds.18 mph75%29.78 "Hg4 mi
2:55 PM37 °FLow clouds.13 mph75%29.83 "Hg4 mi
2:35 PM37 °FMostly cloudy.13 mph75%29.82 "Hg6 mi
2:15 PM37 °FLow clouds.18 mph75%29.88 "Hg7 mi
Weather by CustomWeather, © 2014

See weather overviewHow to use our weather pages